Zurück zum Katalog

TYVAK-0173

AktivWissenschaftPO
NORAD 48892·PAYLOAD·🇦🇺 Australia

Gestartet Jun 30, 2021 von Cape Canaveral Space Force Station

Loading…

Nächste Überflüge (nächste 24 Stunden)

TLE

AktuellSource: Space-Track

Epoche: Sep 14, 2026, 02:53 UTC

1 48892U 21059P   26257.12015216  .00001176  00000-0  15175-3 0  9995
2 48892  95.9995 311.3438 0011005  88.5089 271.7390 14.82115030281417

Verfolge TYVAK-0173 in Echtzeit mit AllMySat

Download on the App Store